Regional Weather Roundup
Issued by NWS

Home | Current Version | Previous Version | Graphics & Text | Print | Product List | Glossary Off
Versions: 1 2 3 4 5 6 7 8 9 10 11 12 13 14 15 16 17 18 19 20 21 22 23 24 25 26 27 28 29 30 31 32 33 34 35 36 37 38 39 40 41 42 43 44 45 46 47 48 49 50

000
ASUS43 KMPX 271501
RWRMN
WEATHER ROUNDUP FOR MINNESOTA
NATIONAL WEATHER SERVICE TWIN CITIES/CHANHASSEN MN
1000 AM CDT MON APR 27 2015


NOTE: "FAIR" INDICATES FEW OR NO CLOUDS BELOW 12,000 FEET WITH NO
SIGNIFICANT WEATHER AND/OR OBSTRUCTIONS TO VISIBILITY. N/A MEANS
CURRENT SKY AND/OR WEATHER CONDITIONS ARE NOT AVAILABLE.

MNZ060>063-068>070-271600-
   Twin Cities Metro

CITY           SKY/WX    TMP DP  RH WIND       PRES   REMARKS
TWIN CITIES    SUNNY     57  29  34 CALM      30.25R
ST PAUL        SUNNY     56  28  34 VRB3      30.25S
CRYSTAL        SUNNY     56  28  34 VRB3      30.25R
BLAINE         SUNNY     55  30  38 CALM      30.25R
LAKEVILLE      SUNNY     54  28  37 NE3       30.25R
EDEN PRAIRIE   SUNNY     57  29  34 E5        30.24R
SOUTH ST PAUL  SUNNY     55  28  35 CALM      30.25R
LAKE ELMO      FAIR      54  30  40 CALM      30.26R
$$
MNZ001>005-007-008-013>017-022>024-027-028-271600-
   Northwest Minnesota

CITY           SKY/WX    TMP DP  RH WIND       PRES   REMARKS
BEMIDJI        SUNNY     59  25  27 W5        30.23R
HALLOCK        CLOUDY    54  45  71 N10       30.22R
ROSEAU         PTSUNNY   61  30  31 W6        30.21S
WARROAD        MOSUNNY   59  30  33 SW3       30.21S
THIEF RVR FALL MOSUNNY   61  28  29 W9        30.23R
CROOKSTON      MOSUNNY   59  28  31 W7        30.22F
FOSSTON        SUNNY     61  21  21 W7        30.23S
DETROIT LAKES  SUNNY     59  21  23 NW8       30.25R
MOORHEAD       SUNNY     57  25  28 W5        30.25R
PARK RAPIDS    SUNNY     61  19  19 NW12      30.23R
MAHNOMEN       FAIR      58  25  28 W8        30.23S
$$
MNZ006-009>011-018-025>026-271600-
   North Central Minnesota

CITY           SKY/WX    TMP DP  RH WIND       PRES   REMARKS
BAUDETTE       MOSUNNY   58  22  24 CALM      30.21S
FLAG ISLAND    PTSUNNY   45  28  53 SE5       30.20F
INTL FALLS     SUNNY     56  27  32 CALM      30.22F
WASKISH        SUNNY     55  25  30 CALM      30.23R
BIG FORK       SUNNY     59  21  23 CALM      30.22S
LONGVILLE      SUNNY     59  19  21 NW6       30.23R
GRAND RAPIDS   SUNNY     54  23  30 NW3       30.23S
CRANE LAKE     SUNNY     52  30  43 CALM      30.25S
ORR            SUNNY     57  25  28 CALM      30.20S
COOK           SUNNY     55  30  38 CALM      30.23S
WALKER         FAIR      55  20  24 W7        30.23R
$$
MNZ012-019>021-037-271600-
   Northeast Minnesota

CITY           SKY/WX    TMP DP  RH WIND       PRES   REMARKS
DULUTH         SUNNY     55  26  32 N8        30.22S
ELY            SUNNY     50  27  40 CALM      30.23S
HIBBING        SUNNY     57  23  26 CALM      30.22S
EVELETH        SUNNY     54  30  40 CALM      30.23S
DULUTH HARBOR  SUNNY     45  36  70 E7        30.24R
TWO HARBORS    SUNNY     57  36  44 E8        30.21R
SILVER BAY     SUNNY     55  28  35 E8        30.21S
GRAND MARAIS     N/A     44  32  62 SW9       30.22S
G MARAIS ARPRT SUNNY     52  25  35 NW8       30.22R
$$
MNZ029>031-032-039>041-046>048-054>057-064-271600-
   West Central Minnesota

CITY           SKY/WX    TMP DP  RH WIND       PRES   REMARKS
FERGUS FALLS   SUNNY     55  19  24 W6        30.27R
WHEATON        SUNNY     57  27  30 S8        30.27S
MORRIS         SUNNY     59  25  27 SW8       30.25R
ALEXANDRIA     SUNNY     55  26  32 SW12      30.27R
ELBOW LAKE     FAIR      56  27  32 SW8       30.26R
WADENA         SUNNY     57  27  30 W8        30.24R
GLENWOOD       SUNNY     55  28  35 SW9       30.27R
APPLETON       SUNNY     59  23  25 SW7       30.26R
BENSON         SUNNY     55  25  30 W5        30.26S
ORTONVILLE     SUNNY     54  27  35 CALM      30.26R
MADISON        SUNNY     55  25  30 CALM      30.26R
WILLMAR        FAIR      55  30  38 SW7       30.28R
$$
MNZ033>034-036-042>043-049>051-058-059-271600-
   Central Minnesota

CITY           SKY/WX    TMP DP  RH WIND       PRES   REMARKS
ST CLOUD       SUNNY     53  27  36 SW5       30.25R
SAUK CENTRE    FAIR      56  31  37 SW10      30.26R
PAYNESVILLE    SUNNY     53  28  37 S6        30.26R
AITKIN         SUNNY     57  19  23 W3        30.21S
PINE RIVER     SUNNY     55  28  35 NW3       30.25S
BRAINERD       SUNNY     56  22  26 W5        30.24R
STAPLES        SUNNY     55  21  26 W8        30.24R
LONG PRAIRIE   FAIR      54  28  37 S8        30.26R
LITTLE FALLS   SUNNY     54  27  35 W3        30.25R
LITCHFIELD     SUNNY     57  27  30 CALM      30.26R
BUFFALO        SUNNY     55  28  35 CALM      30.26S
MAPLE LAKE     SUNNY     56  31  39 CALM      30.26S
$$
MNZ037-044-045-052-053-271600-
   East Central Minnesota

CITY           SKY/WX    TMP DP  RH WIND       PRES   REMARKS
PRINCETON      SUNNY     55  28  35 W5        30.25R
MORA           SUNNY     54  28  37 CALM      30.25S
CAMBRIDGE      SUNNY     55  34  44 CALM      30.23R
RUSH CITY      MOSUNNY   53  27  36 CALM      30.25R
MOOSE LAKE     SUNNY     54  28  37 CALM      30.22R
HINCKLEY       FAIR      55  28  35 N5        30.24R
CLOQUET        SUNNY     55  19  24 N5        30.23R
MCGREGOR       SUNNY     54  27  35 W3        30.23S
$$
MNZ071>073-080-081-089-090-097-098-271600-
   Southwest Minnesota

CITY           SKY/WX    TMP DP  RH WIND       PRES   REMARKS
MONTEVIDEO     SUNNY     59  30  33 SW3       30.27R
GRANITE FALLS  SUNNY     56  25  30 S7        30.28R
CANBY          SUNNY     54  27  35 CALM      30.27S
MARSHALL       SUNNY     57  27  30 S5        30.26R
REDWOOD FALLS  SUNNY     56  27  32 CALM      30.26R
OLIVIA         SUNNY     54  28  37 SW5       30.25R
PIPESTONE      SUNNY     55  21  26 W1        30.24S
WORTHINGTON    SUNNY     55  23  28 CALM      30.24F
JACKSON        SUNNY     55  23  28 NE8       30.24S
TRACY          SUNNY     57  26  30 S3        30.26S
SLAYTON        SUNNY     56  19  23 CALM      30.26S
$$
MNZ065>067-074>077-082>085-091>093-271600-
   South Central Minnesota

CITY           SKY/WX    TMP DP  RH WIND       PRES   REMARKS
MANKATO        SUNNY     54  28  37 NE7       30.25R
NEW ULM        SUNNY     55  27  33 CALM      30.25S
ST JAMES       SUNNY     57  23  26 CALM      30.26R
FAIRMONT       SUNNY     55  25  30 N8        30.24R
GLENCOE        SUNNY     56  32  39 CALM      30.25R
FARIBAULT      SUNNY     54  28  37 N6        30.25R
OWATONNA       SUNNY     54  25  32 N7        30.24R
WASECA         SUNNY     52  30  43 NE7       30.25R
ALBERT LEA     SUNNY     54  28  37 N8        30.22S
$$
MNZ078>079-086>088-094>096-271600-
   Southeast Minnesota

CITY           SKY/WX    TMP DP  RH WIND       PRES   REMARKS
ROCHESTER      SUNNY     51  32  48 NE3       30.24R
RED WING       SUNNY     54  28  37 CALM      30.24R
STANTON        SUNNY     53  28  37 NE6       30.24R
DODGE CENTER   SUNNY     52  34  50 NW3       30.23S
WINONA         SUNNY     52  32  46 CALM      30.23S
AUSTIN         SUNNY     52  34  50 NE6       30.22F
PRESTON        SUNNY     49  32  51 CALM      30.23R
$$
ABBREVIATIONS USED IN REMARKS
   TC - TEMPERATURES IN CELSIUS
  WCI - WIND CHILL INDEX
   HX - HEAT INDEX
  VSB - VISIBILITY
$$



USA.gov is the U.S. government's official web portal to all federal, state and local government web resources and services.